MMGLMMMM

Guest
Details From MMGL - Don Miguel Hidalgo Y Costilla Intl
To MMMM - GENERAL FRANCISCO J MUJICA INTL
Flight Number -
Tags generated
Created
Modified
Stats Distance 135 nm / 250 km
Max Altitude 13,200 ft / 4,023 m
Waypoints 3
Social Downloads 1
Likes 0
Share VATSIM

Download

Looking for another format? Having issues loading an existing format? Contact us
Advertisement - Login to hide

Notes

Basic altitude profile: - Ascent Rate: 2500ft/min - Ascent Speed: 250kts - Cruise Altitude: 35000ft - Cruise Speed: 420kts - Descent Rate: 1500ft/min - Descent Speed: 250kts Options: - Use NATs: yes - Use PACOTS: yes - Use low airways: yes - Use high airways: yes

Route

MMGL VOGAS MMMM

ID Type Via Altitude Latitude Longitude Leg Dist Tot Dist Heading (true) Name
O MMGL APT - 0 ft / 0 m 20.52458˚ -103.30882˚ - 0 nm - Don Miguel Hidalgo Y Costilla Intl
VOGAS FIX - 13,200 ft / 4,023 m 20.15797˚ -102.07394˚ 72 nm 72 nm 107° / 108° -
O MMMM APT - 0 ft / 0 m 19.85049˚ -101.02526˚ 61 nm 134 nm 107° / 108° GENERAL FRANCISCO J MUJICA INTL

Altitude Profile

Advertisement - Login to hide

MMGL

Details ICAO MMGL (GDL)
Name Don Miguel Hidalgo Y Costilla Intl
Region Mexico
Timezone America/Mexico_City (UTC-5.0)
Stats Elevation 5,016 ft / 1,529 m (AMSL)
Location 20.524575° -103.308825°
Runways 2
Magnetic Variation 6.212° E

METAR

MMGL 211046Z 28003KT 10SM SKC 19/08 A3016

Decode

TAF

TAF MMGL 202328Z 2100/2206 23008KT P6SM SCT030 TX31/2122Z TN16/2113Z BECMG 2102/2103 00000KT FM211200 00000KT 6SM HZ SCT300 BECMG 2117/2118 22008KT P6SM FM212200 23010KT P6SM SCT030 BECMG 2202/2203 00000KT SCT300

Decode

Departure Runways

ID Width Length Bearing (true) Bearing (mag) Surface Threshold Offset Overrun Length
02 94 ft / 29 m 6,031 ft / 1,838 m 30.09° 23.88° Asphalt 0 ft / 0 m 0 ft / 0 m
10 197 ft / 60 m 13,151 ft / 4,008 m 114.12° 107.91° Concrete 0 ft / 0 m 197 ft / 60 m
20 94 ft / 29 m 6,031 ft / 1,838 m 210.10° 203.89° Asphalt 0 ft / 0 m 0 ft / 0 m
28 197 ft / 60 m 13,151 ft / 4,008 m 294.14° 287.93° Concrete 0 ft / 0 m 197 ft / 60 m

MMMM

Details ICAO MMMM (MLM)
Name GENERAL FRANCISCO J MUJICA INTL
Region Mexico
Timezone America/Mexico_City (UTC-5.0)
Stats Elevation 6,033 ft / 1,839 m (AMSL)
Location 19.850494° -101.025263°
Runways 1
Magnetic Variation 5.378° E

METAR

MMMM 210953Z 00000KT 6SM SKC 16/10 A3020

Decode

TAF

TAF MMMM 202328Z 2100/2206 17006KT 6SM HZ SCT030 BECMG 2102/2103 00000KT FM211700 23008KT P6SM SKC BECMG 2121/2122 23010K SCT030 FM220300 20005KT P6SM SKC

Decode

Destination Runways

ID Width Length Bearing (true) Bearing (mag) Surface Threshold Offset Overrun Length
05 148 ft / 45 m 11,164 ft / 3,403 m 54.53° 49.15° Asphalt 0 ft / 0 m 190 ft / 58 m
23 148 ft / 45 m 11,164 ft / 3,403 m 234.54° 229.16° Asphalt 0 ft / 0 m 190 ft / 58 m

Popular Alternatives